"TOA5","AWS1","CR1000","7964","CR1000.Std.14","CPU:AWS1_114.CR1","64363","TBL110"
"TIMESTAMP","RECORD","Wind_spd_WVc(1)","Wind_spd_WVc(2)","Air_Temp_Avg","Humidity_Avg","SW_upper_Wm2_Avg","Rain_Tot","Press_Avg","Issui_Tot","Depth_cm","SR50A_Raw","Quality","Ground_Temp_Avg(1)","Ground_Temp_Avg(2)","SW_lower_Wm2_Avg","Albedo_Avg","SWC_per(1)","SWC_per(2)","Period(1)","Period(2)"
"TS","RN","","","","","","","","","","","","","","","","","","",""
"","","WVc","WVc","Avg","Avg","Avg","Tot","Avg","Tot","Smp","Smp","Smp","Avg","Avg","Avg","Avg","Smp","Smp","Smp","Smp"
"2016-09-02 00:00:00",251341,0.01,175.2,14.85,90,0,0,866.8421,0,0.995,3.088,385,20,20.01,0.208438,0,48.65,55.72,32.96,34.68
"2016-09-02 00:10:00",251342,0.046,110.1,15.07,88.7,0,0,866.7031,0,0.172,3.093,377,20.01,20.01,0.6253035,0,48.59,55.72,32.95,34.68
"2016-09-02 00:20:00",251343,0,0,15.51,85.4,0,0,866.5219,0,-0.227,3.095,359,19.98,20.02,0.9057543,0,48.65,55.72,32.96,34.68
"2016-09-02 00:30:00",251344,0,0,15.64,84.6,0,0,866.4082,0,-0.357,3.097,350,19.94,20.01,0.6669925,0,48.65,55.72,32.96,34.68
"2016-09-02 00:40:00",251345,0.004,29.11,15.31,87.3,0,0,866.3956,0,-1.387,3.111,291,19.93,20.02,0.3827612,0,48.65,55.66,32.96,34.67
"2016-09-02 00:50:00",251346,0.283,178.8,14.26,97,0,0,866.246,0,-1.285,3.114,253,19.89,20.03,0,0,48.65,55.66,32.96,34.67
"2016-09-02 01:00:00",251347,0.367,193,14.11,100,0,0,866.1428,0,-0.921,3.109,280,19.84,20.05,0.003789796,0,48.65,55.72,32.96,34.68
"2016-09-02 01:10:00",251348,0.056,208.2,14.45,97.9,0,0,866.1428,0,-0.97,3.109,280,19.85,20.07,0.4964653,0,48.65,55.66,32.96,34.67
"2016-09-02 01:20:00",251349,0.113,171.5,14.2,98.7,0,0,866.1428,0,-0.771,3.109,283,19.81,20.07,0.1174822,0,48.65,55.72,32.96,34.68
"2016-09-02 01:30:00",251350,0.191,190.4,14.02,100,0,0,866.1428,0,-1.677,3.118,247,19.75,20.07,0.1781169,0,48.59,55.72,32.95,34.68
"2016-09-02 01:40:00",251351,0.395,187.7,13.8,100,0,0,866.1428,0,-2.871,3.131,211,19.8,20.09,0,0,48.59,55.72,32.95,34.68
"2016-09-02 01:50:00",251352,0.289,200,13.67,100,0,0,866.1576,0,-1.415,3.117,260,19.77,20.1,0.1099119,0,48.65,55.66,32.96,34.67
"2016-09-02 02:00:00",251353,0.34,189.4,13.64,100,0,0,866.1597,0,-1.52,3.118,245,19.72,20.09,0.2653074,0,48.65,55.66,32.96,34.67
"2016-09-02 02:10:00",251354,0.171,190.8,13.68,100,0,0,866.2145,0,-0.963,3.113,256,19.74,20.09,0.3676459,0,48.65,55.66,32.96,34.67
"2016-09-02 02:20:00",251355,0.287,185.7,13.56,100,0,0,866.1428,0,-0.461,3.109,238,19.71,20.08,0.2766869,0,48.59,55.66,32.95,34.67
"2016-09-02 02:30:00",251356,0.268,185.7,13.52,100,0,0,866.1428,0,-2.16,3.126,215,19.7,20.06,0.409364,0,48.59,55.66,32.95,34.67
"2016-09-02 02:40:00",251357,0.408,184.7,13.34,100,0,0,866.2018,0,-2.705,3.132,208,19.67,20.09,0.2653385,0,48.65,55.66,32.96,34.67
"2016-09-02 02:50:00",251358,0.354,203.5,13.39,100,0,0,866.145,0,-1.641,3.119,220,19.66,20.09,0.5231026,0,48.65,55.66,32.96,34.67
"2016-09-02 03:00:00",251359,0.264,201.9,13.48,100,0,0,866.3367,0,-0.632,3.111,245,19.62,20.09,0.4472936,0,48.59,55.66,32.95,34.67
"2016-09-02 03:10:00",251360,0.127,201.1,13.56,100,0,0,866.3956,0,-0.119,3.106,291,19.57,20.09,0.5117428,0,48.59,55.66,32.95,34.67
"2016-09-02 03:20:00",251361,0.345,202,13.35,100,0,0,866.3956,0,-0.299,3.108,278,19.61,20.07,0.4435085,0,48.59,55.6,32.95,34.65
"2016-09-02 03:30:00",251362,0.356,200.5,13.4,100,0,0,866.3956,0,0.957,3.095,351,19.54,20.05,0.4852082,0,48.59,55.6,32.95,34.65
"2016-09-02 03:40:00",251363,0.383,191.2,13.31,100,0,0,866.3956,0,0.02,3.106,255,19.55,20.04,0.420775,0,48.59,55.66,32.95,34.67
"2016-09-02 03:50:00",251364,0.281,130.6,13.4,100,0,0,866.3956,0,-0.526,3.109,228,19.53,20.05,0.640642,0,48.59,55.6,32.95,34.65
"2016-09-02 04:00:00",251365,0.033,153.6,13.29,100,0,0,866.3956,0,-0.285,3.109,225,19.46,20.06,0.3714965,0,48.65,55.6,32.96,34.65
"2016-09-02 04:10:00",251366,0.173,187.2,13.15,100,0,0,866.3956,0,-0.284,3.109,237,19.4,20.06,0.4510975,0,48.65,55.6,32.96,34.65
"2016-09-02 04:20:00",251367,0.406,187.4,13.14,100,0,0,866.3956,0,-0.639,3.112,226,19.44,20.06,0.4586774,0,48.59,55.6,32.95,34.65
"2016-09-02 04:30:00",251368,0.304,187.4,13.27,100,0,0,866.3956,0,-1.017,3.115,220,19.4,20.06,0.5307011,0,48.59,55.6,32.95,34.65
"2016-09-02 04:40:00",251369,0.473,190.1,13.23,100,0,0,866.3956,0,-0.844,3.114,238,19.39,20.04,0.4624666,0,48.59,55.6,32.95,34.65
"2016-09-02 04:50:00",251370,0.372,190.3,13.23,100,0,0,866.4019,0,-1.097,3.116,206,19.41,20,0.6065167,0,48.65,55.6,32.96,34.65
"2016-09-02 05:00:00",251371,0.338,186.8,13.27,100,0,0,866.621,0,-1.789,3.123,209,19.34,19.98,0.5534448,0,48.59,55.6,32.95,34.65
"2016-09-02 05:10:00",251372,0.5,186.1,13.15,100,0,0,866.6484,0,-2.182,3.128,212,19.28,19.98,0.4624692,0,48.59,55.6,32.95,34.65
"2016-09-02 05:20:00",251373,0.44,188.4,13.24,100,0,0,866.7874,0,-2.919,3.134,204,19.3,19.98,0.780903,0,48.65,55.6,32.96,34.65
"2016-09-02 05:30:00",251374,0.196,191.1,13.39,100,1.104769,0,866.8842,0,-3.4,3.138,196,19.28,19.99,1.17514,0.769,48.65,55.6,32.96,34.65
"2016-09-02 05:40:00",251375,0.404,190.8,13.39,100,6.620742,0,866.9221,0,-4.525,3.149,183,19.23,20.02,1.713429,0.275,48.59,55.6,32.95,34.65
"2016-09-02 05:50:00",251376,0.334,191.3,13.49,100,14.11792,0,867.1223,0,-4.266,3.146,185,19.17,20,2.676227,0.192,48.59,55.6,32.95,34.65
"2016-09-02 06:00:00",251377,0.44,191.3,13.47,100,20.48684,0,867.1686,0,-3.545,3.139,200,19.15,19.97,3.316842,0.162,48.59,55.6,32.95,34.65
"2016-09-02 06:10:00",251378,0.099,185.3,13.56,100,28.14446,0,867.3582,0,-3.779,3.138,185,19.17,19.96,4.696502,0.166,48.59,55.6,32.95,34.65
"2016-09-02 06:20:00",251379,0.019,165.8,14.08,100,35.74695,0,867.4045,0,-3.93,3.139,192,19.1,19.95,8.805287,0.245,48.59,55.55,32.95,34.64
"2016-09-02 06:30:00",251380,0.264,175.5,14.25,100,47.26073,0,867.4066,0,-3.656,3.135,196,19.07,19.95,10.20001,0.226,48.59,55.6,32.95,34.65
"2016-09-02 06:40:00",251381,0.015,176.5,14.43,100,51.20826,0,867.4066,0,-3.257,3.13,196,19,19.93,12.12095,0.239,48.59,55.55,32.95,34.64
"2016-09-02 06:50:00",251382,0.009,159.4,14.89,100,46.28879,0,867.4045,0,-1.407,3.109,214,19.01,19.92,12.82919,0.28,48.59,55.55,32.95,34.64
"2016-09-02 07:00:00",251383,0,0,15.42,99.2,52.82678,0,867.4066,0,-0.563,3.099,224,19,19.9,13.62434,0.267,48.59,55.6,32.95,34.65
"2016-09-02 07:10:00",251384,0.123,159.5,15.66,98.5,49.12206,0,867.4023,0,0.08,3.09,225,18.98,19.89,14.34002,0.294,48.59,55.55,32.95,34.64
"2016-09-02 07:20:00",251385,0.356,146.2,16.27,95.2,49.89543,0,867.3287,0,-0.768,3.095,210,18.93,19.87,15.1242,0.303,48.59,55.55,32.95,34.64
"2016-09-02 07:30:00",251386,0.185,133.2,16.81,91.2,60.25144,0,867.3013,0,-3.226,3.117,195,18.93,19.86,15.46517,0.268,48.59,55.55,32.95,34.64
"2016-09-02 07:40:00",251387,0.187,37.86,17.31,80.8,53.0982,0,867.3329,0,-1.237,3.094,236,18.92,19.84,16.59442,0.313,48.59,55.55,32.95,34.64
"2016-09-02 07:50:00",251388,0.007,41.28,17.65,79.19,288.1962,0,867.3961,0,-0.253,3.084,300,18.92,19.8,18.59908,0.091,48.59,55.55,32.95,34.64
"2016-09-02 08:00:00",251389,0.077,272.7,17.87,77.59,201.1442,0,867.3771,0,-0.968,3.09,262,18.93,19.8,23.14654,0.189,48.59,55.55,32.95,34.64
"2016-09-02 08:10:00",251390,0.097,189.3,18.2,76.85,395.5323,0,867.3897,0,-0.848,3.087,277,18.92,19.8,28.26621,0.114,48.59,55.55,32.95,34.64
"2016-09-02 08:20:00",251391,0.728,28.37,18.35,75.14,590.9462,0,867.3518,0,-1.873,3.096,226,18.9,19.8,39.67653,0.067,48.59,55.55,32.95,34.64
"2016-09-02 08:30:00",251392,0.287,11.18,18.87,75.03,517.0961,0,867.3666,0,-3.647,3.109,207,18.88,19.78,47.85437,0.104,48.54,55.55,32.93,34.64
"2016-09-02 08:40:00",251393,0.277,353.4,18.9,74.75,162.0929,0,867.4023,0,-3.766,3.112,208,18.9,19.75,35.53456,0.226,48.59,55.55,32.95,34.64
"2016-09-02 08:50:00",251394,0.491,2.675,18.8,76,135.139,0,867.4045,0,-4.18,3.116,185,18.88,19.74,42.50353,0.328,48.59,55.49,32.95,34.63
"2016-09-02 09:00:00",251395,0.507,358.1,18.95,75.47,613.6829,0,867.2739,0,-2.78,3.102,187,18.81,19.74,45.46316,0.091,48.59,55.49,32.95,34.63
"2016-09-02 09:10:00",251396,0.426,346.5,19.07,74.36,470.6912,0,867.257,0,-3.592,3.108,190,18.76,19.71,50.30999,0.119,48.59,55.49,32.95,34.63
"2016-09-02 09:20:00",251397,0.397,5.144,19.51,74.18,348.0151,0,867.3834,0,-4.189,3.111,180,18.77,19.68,60.64408,0.183,48.65,55.49,32.96,34.63
"2016-09-02 09:30:00",251398,0.272,345.7,19.62,74.7,255.7123,0,867.3861,0,-4.006,3.112,177,18.82,19.65,38.66851,0.154,48.59,55.49,32.95,34.63
"2016-09-02 09:40:00",251399,0.441,1.96,19.33,75.86,363.807,0,867.4009,0,-2.445,3.096,225,18.77,19.63,46.47876,0.14,48.59,55.49,32.95,34.63
"2016-09-02 09:50:00",251400,0.629,21.79,19.47,73.99,257.9212,0,867.3986,0,-2.413,3.095,204,18.77,19.63,61.42094,0.24,48.59,55.49,32.95,34.63
"2016-09-02 10:00:00",251401,0.321,338,19.52,74.88,304.7348,0,867.4032,0,-1.02,3.082,213,18.8,19.63,50.72684,0.167,48.59,55.49,32.95,34.63
"2016-09-02 10:10:00",251402,0.638,11.55,19.65,72.24,606.2232,0,867.4058,0,-2.103,3.092,204,18.82,19.63,66.05934,0.109,48.59,55.49,32.95,34.63
"2016-09-02 10:20:00",251403,0.565,4.806,20.07,71.34,968.3992,0,867.4085,0,0.269,3.065,301,18.82,19.63,108.2445,0.112,48.59,55.49,32.95,34.63
"2016-09-02 10:30:00",251404,0.496,13.96,20.43,71.49,918.9089,0,867.4033,0,-1.819,3.084,268,18.84,19.63,104.167,0.113,48.59,55.43,32.95,34.61
"2016-09-02 10:40:00",251405,0.413,308.2,20.77,71.43,977.6707,0,867.3083,0,-2.264,3.086,193,18.8,19.62,116.6005,0.119,48.59,55.43,32.95,34.61
"2016-09-02 10:50:00",251406,0.394,54.64,20.96,69.35,998.0753,0,867.0983,0,-2.38,3.086,223,18.83,19.56,125.9681,0.126,48.54,55.43,32.93,34.61
"2016-09-02 11:00:00",251407,0.421,333.9,21.3,66.5,974.6711,0,866.9902,0,-1.27,3.076,259,18.88,19.49,126.239,0.129,48.48,55.43,32.92,34.61
"2016-09-02 11:10:00",251408,0.504,336.4,21.14,65.94,950.9008,0,866.8542,0,-2.445,3.088,246,18.94,19.49,128.0535,0.135,48.54,55.43,32.93,34.61
"2016-09-02 11:20:00",251409,0.486,328.7,21.18,65.54,905.4951,0,866.8369,0,0.99,3.054,280,18.99,19.49,125.6099,0.138,48.54,55.43,32.93,34.61
"2016-09-02 11:30:00",251410,0.314,327.9,21.32,65.69,676.1994,0,866.8148,0,-0.445,3.066,253,19.1,19.51,93.45254,0.136,48.54,55.43,32.93,34.61
"2016-09-02 11:40:00",251411,0.4,359.7,21.73,63.6,922.2034,0,866.7086,0,-1.796,3.079,225,19.13,19.51,132.8756,0.141,48.48,55.43,32.92,34.61
"2016-09-02 11:50:00",251412,0.376,240.4,21.51,64.5,842.8046,0,866.7147,0,-0.75,3.068,361,19.25,19.52,127.0593,0.147,48.43,55.37,32.9,34.6
"2016-09-02 12:00:00",251413,0.315,312.4,21.91,62.34,1009.363,0,866.6571,0,-1.768,3.076,289,19.32,19.49,152.0363,0.151,48.43,55.43,32.9,34.61
"2016-09-02 12:10:00",251414,0.513,351.8,22.07,62.2,932.3379,0,866.5959,0,-1.689,3.075,266,19.4,19.44,137.6058,0.145,48.43,55.37,32.9,34.6
"2016-09-02 12:20:00",251415,0.538,300.5,22.11,61.93,889.321,0,866.589,0,-4.064,3.099,227,19.44,19.41,132.5582,0.148,48.43,55.37,32.9,34.6
"2016-09-02 12:30:00",251416,0.435,311,21.9,63.51,852.5203,0,866.5712,0,-0.369,3.063,265,19.54,19.42,130.7264,0.153,48.38,55.37,32.89,34.6
"2016-09-02 12:40:00",251417,0.584,297.6,21.73,64.65,852.8242,0,866.5826,0,-1.503,3.073,248,19.6,19.41,133.0647,0.155,48.38,55.37,32.89,34.6
"2016-09-02 12:50:00",251418,0.615,307.7,22.22,63.17,964.818,0,866.5721,0,0.217,3.056,235,19.67,19.41,151.024,0.154,48.38,55.32,32.89,34.59
"2016-09-02 13:00:00",251419,0.728,312.1,22.41,62.44,969.9733,0,866.399,0,-0.189,3.059,261,19.74,19.41,152.6918,0.157,48.38,55.37,32.89,34.6
"2016-09-02 13:10:00",251420,0.463,290.8,22.18,63.04,870.9389,0,866.3353,0,-1.032,3.068,230,19.8,19.41,136.666,0.156,48.38,55.37,32.89,34.6
"2016-09-02 13:20:00",251421,0.388,297.5,22.77,61.51,1050.25,0,866.3293,0,0.965,3.047,222,19.91,19.39,163.3936,0.154,48.32,55.32,32.88,34.59
"2016-09-02 13:30:00",251422,0.299,264.5,22.56,62.25,566.1613,0,866.2611,0,-1.579,3.071,222,20,19.38,75.36259,0.119,48.32,55.32,32.88,34.59
"2016-09-02 13:40:00",251423,0.218,257.2,22.72,62.86,860.0718,0,866.2676,0,-0.876,3.062,228,20.07,19.39,117.8396,0.135,48.32,55.32,32.88,34.59
"2016-09-02 13:50:00",251424,0.41,263.3,22.75,61.4,778.4633,0,866.0946,0,-0.181,3.056,252,20.14,19.37,87.03439,0.108,48.27,55.32,32.86,34.59
"2016-09-02 14:00:00",251425,0.342,302.5,22.61,63.41,564.5773,0,866.086,0,-0.418,3.063,225,20.2,19.39,55.67594,0.097,48.21,55.26,32.85,34.57
"2016-09-02 14:10:00",251426,0.203,281.3,21.65,65.79,154.5073,0,866.0833,0,0.015,3.062,233,20.33,19.4,13.11939,0.08,48.27,55.32,32.86,34.59
"2016-09-02 14:20:00",251427,0.262,282.2,20.96,70.22,103.449,0,866.0924,0,-0.382,3.069,229,20.46,19.44,8.090671,0.076,48.27,55.32,32.86,34.59
"2016-09-02 14:30:00",251428,0.057,285.6,20.92,70.11,134.793,0,866.1127,0,-0.349,3.068,240,20.49,19.46,14.73374,0.108,48.27,55.26,32.86,34.57
"2016-09-02 14:40:00",251429,0.195,273.6,20.99,71.38,138.5975,0,866.1296,0,-0.486,3.07,227,20.6,19.46,17.35989,0.125,48.16,55.26,32.84,34.57
"2016-09-02 14:50:00",251430,0.1,273.4,20.96,72.17,143.9073,0,866.1599,0,-1.467,3.079,228,20.69,19.52,19.49719,0.134,48.16,55.26,32.84,34.57
"2016-09-02 15:00:00",251431,0.106,281,20.96,73.36,87.53134,0,866.2341,0,-0.108,3.065,241,20.75,19.53,10.9404,0.12,48.21,55.26,32.85,34.57
"2016-09-02 15:10:00",251432,0.123,318.5,20.89,74.91,56.56464,0,866.3942,0,0.137,3.064,230,20.84,19.52,6.116319,0.108,48.21,55.26,32.85,34.57
"2016-09-02 15:20:00",251433,0.085,40.4,21.01,73.53,77.32439,0,866.3953,0,0.043,3.064,236,20.87,19.51,10.42503,0.134,48.11,55.26,32.82,34.57
"2016-09-02 15:30:00",251434,0.18,335.5,21.03,74.87,141.1679,0,866.3956,0,-0.201,3.065,251,20.88,19.5,21.19869,0.149,48.16,55.2,32.84,34.56
"2016-09-02 15:40:00",251435,0.26,212.3,21.11,71.98,67.94674,0,866.3956,0,-0.466,3.068,225,20.9,19.49,8.871316,0.125,48.11,55.2,32.82,34.56
"2016-09-02 15:50:00",251436,0.429,146,20.65,75.68,27.87357,0,866.5156,0,-0.217,3.069,224,20.98,19.5,2.849735,0.095,48.11,55.2,32.82,34.56
"2016-09-02 16:00:00",251437,0.234,134.3,20.61,75,77.63882,0,866.5957,0,-0.669,3.072,231,20.98,19.58,10.80777,0.139,48.11,55.26,32.82,34.57
"2016-09-02 16:10:00",251438,0.116,83.3,21.03,73.16,150.1133,0,866.5915,0,-2.095,3.083,261,20.98,19.62,22.68798,0.151,48.05,55.26,32.81,34.57
"2016-09-02 16:20:00",251439,0.299,167.9,21.21,72.09,68.50877,0,866.6484,0,-3.42,3.096,229,21.09,19.59,9.73912,0.141,48.11,55.2,32.82,34.56
"2016-09-02 16:30:00",251440,0.086,77.76,21.05,73.37,35.1839,0,866.6484,0,-1.801,3.082,247,21.1,19.59,4.248075,0.12,48.05,55.2,32.81,34.56
"2016-09-02 16:40:00",251441,0.124,92.5,20.89,73.54,63.8396,0,866.6568,0,-1.57,3.08,230,21.1,19.59,9.079741,0.141,48.05,55.26,32.81,34.57
"2016-09-02 16:50:00",251442,0.022,239.9,20.78,74.53,66.04055,0,866.7158,0,-1.093,3.077,211,21.09,19.66,8.837209,0.132,48.05,55.26,32.81,34.57
"2016-09-02 17:00:00",251443,0.139,72.08,20.58,75.74,27.67706,0,866.88,0,-1.07,3.077,227,21.07,19.72,3.562169,0.127,48.05,55.26,32.81,34.57
"2016-09-02 17:10:00",251444,0.133,13.97,20.5,76.16,55.82574,0,866.8969,0,-0.999,3.077,338,21.07,19.71,8.113407,0.145,48.05,55.15,32.81,34.55
"2016-09-02 17:20:00",251445,0.07,288.4,20.22,77.74,60.10189,0,866.9011,0,-1.224,3.081,322,21.07,19.71,8.799314,0.146,48.05,55.2,32.81,34.56
"2016-09-02 17:30:00",251446,0.084,355.4,20.1,77.26,50.48056,0,866.9032,0,-2.491,3.093,260,21.07,19.71,6.68854,0.132,48,55.15,32.8,34.55
"2016-09-02 17:40:00",251447,0.106,359.2,19.9,77.18,18.3387,0,867.1201,0,-0.748,3.078,351,21.07,19.77,1.500658,0.062,48,55.2,32.8,34.56
"2016-09-02 17:50:00",251448,0.01,71.64,19.83,77.11,9.519147,0,867.1539,0,-1.783,3.088,301,21.1,19.87,0.4547449,0.042,48.05,55.15,32.81,34.55
"2016-09-02 18:00:00",251449,0.012,63.9,19.64,78.81,4.287939,0,867.1981,0,-2.333,3.094,269,21.1,19.83,0,0,48.05,55.2,32.81,34.56
"2016-09-02 18:10:00",251450,0.141,59.66,19.49,78.99,1.560323,0,867.3918,0,-4.109,3.113,221,21.1,19.8,0,0,48,55.2,32.8,34.56
"2016-09-02 18:20:00",251451,0,0,19.31,79.34,0.1100479,0,867.4066,0,-4.578,3.118,204,21.1,19.8,0,0,47.95,55.2,32.78,34.56
"2016-09-02 18:30:00",251452,0.072,132.4,19.13,80.2,0,0,867.4066,0,1.07,3.065,437,21.1,19.8,0,0,47.95,55.15,32.78,34.55
"2016-09-02 18:40:00",251453,0,0,18.91,80,0,0,867.4066,0,1.277,3.063,411,21.1,19.84,0,0,47.95,55.2,32.78,34.56
"2016-09-02 18:50:00",251454,0.003,72.91,18.72,80.5,0,0,867.5687,0,1.188,3.065,400,21.12,19.9,0,0,47.95,55.15,32.78,34.55
"2016-09-02 19:00:00",251455,0,0,18.59,80.1,0,0,867.6846,0,1.076,3.067,347,21.13,19.93,0,0,47.84,55.15,32.76,34.55
"2016-09-02 19:10:00",251456,0,0,18.51,80.7,0,0,867.8868,0,0.479,3.073,292,21.04,19.93,0,0,47.89,55.15,32.77,34.55
"2016-09-02 19:20:00",251457,0,0,18.29,83.2,0,0,867.8994,0,0.129,3.078,256,20.99,19.9,0,0,47.89,55.09,32.77,34.53
"2016-09-02 19:30:00",251458,0.084,131.3,18.22,83.8,0,0,867.9121,0,-0.03,3.08,232,21.01,19.89,0.06063266,0,47.95,55.15,32.78,34.55
"2016-09-02 19:40:00",251459,0.065,139.8,18.05,84.5,0,0,867.9121,0,0.327,3.077,235,21.02,19.9,0,0,47.89,55.15,32.77,34.55
"2016-09-02 19:50:00",251460,0.168,127,17.85,86.3,0,0,867.9121,0,0.16,3.08,229,21.04,19.96,0,0,47.95,55.09,32.78,34.53
"2016-09-02 20:00:00",251461,0.162,120.1,17.79,85.2,0,0,867.9121,0,-0.253,3.084,224,21.03,19.97,0.0189477,0,47.95,55.09,32.78,34.53
"2016-09-02 20:10:00",251462,0.025,83.2,17.64,85.2,0,0,867.9142,0,-0.261,3.085,230,20.97,20,0,0,47.89,55.15,32.77,34.55
"2016-09-02 20:20:00",251463,0,0,17.47,85.7,0,0,868.0048,0,-0.222,3.086,241,20.93,20.03,0,0,47.89,55.09,32.77,34.53
"2016-09-02 20:30:00",251464,0.017,205.1,17.23,87.4,0,0,868.1585,0,-0.293,3.089,238,20.99,20.06,0,0,47.89,55.09,32.77,34.53
"2016-09-02 20:40:00",251465,0.099,214.5,17.04,89.4,0,0,868.1606,0,-0.999,3.094,230,21.01,20.06,0.2084248,0,47.89,55.09,32.77,34.53
"2016-09-02 20:50:00",251466,0.002,198,16.88,90.4,0,0,868.2048,0,-0.775,3.096,236,20.95,20.04,0.08715944,0,47.89,55.09,32.77,34.53
"2016-09-02 21:00:00",251467,0.161,198.2,16.31,95.5,0,0,868.2343,0,-0.995,3.1,228,20.87,20.03,0,0,47.84,55.09,32.76,34.53
"2016-09-02 21:10:00",251468,0.16,178.8,16.1,97.9,0,0,868.209,0,-1.28,3.103,240,20.93,20.03,0,0,47.89,55.09,32.77,34.53
"2016-09-02 21:20:00",251469,0.237,168.1,15.99,99.9,0,0,868.169,0,-1.564,3.106,232,20.87,20.08,0.07200127,0,47.89,55.09,32.77,34.53
"2016-09-02 21:30:00",251470,0.004,147.3,16.03,100,0,0,868.1649,0,-1.667,3.107,225,20.77,20.12,0.2273725,0,47.89,55.03,32.77,34.52
"2016-09-02 21:40:00",251471,0.093,169.8,16.06,100,0,0,868.1649,0,-1.28,3.103,245,20.83,20.13,0.4699031,0,47.84,55.03,32.76,34.52
"2016-09-02 21:50:00",251472,0.274,181.9,15.9,100,0,0,868.1649,0,-0.875,3.1,242,20.82,20.15,0.2463202,0,47.84,55.03,32.76,34.52
"2016-09-02 22:00:00",251473,0.267,187.2,15.78,100,0,0,868.1649,0,-0.961,3.102,264,20.7,20.15,0.3524273,0,47.84,55.03,32.76,34.52
"2016-09-02 22:10:00",251474,0.298,182.4,15.57,100,0,0,868.1395,0,-4.408,3.136,194,20.74,20.15,0.2122143,0,47.89,55.03,32.77,34.52
"2016-09-02 22:20:00",251475,0.187,189.4,15.69,100,0,0,868.0469,0,-4.306,3.135,195,20.67,20.15,0.5153776,0,47.89,55.03,32.77,34.52
"2016-09-02 22:30:00",251476,0.446,180.2,15.5,100,0,0,867.9121,0,-4.511,3.137,191,20.63,20.15,0.2842156,0,47.84,55.03,32.76,34.52
"2016-09-02 22:40:00",251477,0.158,189.1,15.5,100,0,0,867.9121,0,-3.665,3.129,211,20.66,20.15,0.4547449,0,47.89,55.03,32.77,34.52
"2016-09-02 22:50:00",251478,0.181,204.6,15.53,100,0,0,867.8805,0,-1.04,3.103,280,20.65,20.16,0.4471658,0,47.84,55.03,32.76,34.52
"2016-09-02 23:00:00",251479,0.019,238.9,15.69,100,0,0,867.9036,0,-0.597,3.098,309,20.56,20.16,0.5911684,0,47.89,54.97,32.77,34.51
"2016-09-02 23:10:00",251480,0.077,190,15.58,100,0,0,867.9121,0,-0.793,3.102,250,20.58,20.19,0.4433763,0,47.84,54.97,32.76,34.51
"2016-09-02 23:20:00",251481,0.345,195.6,15.37,100,0,0,867.9226,0,0.027,3.094,268,20.51,20.22,0.5191732,0,47.84,55.03,32.76,34.52
"2016-09-02 23:30:00",251482,0.155,185.3,15.39,100,0,0,868.129,0,-0.455,3.098,246,20.5,20.22,0.5532784,0,47.84,54.97,32.76,34.51
"2016-09-02 23:40:00",251483,0.161,186.2,15.59,100,0,0,868.1649,0,-0.708,3.1,233,20.46,20.19,0.7768596,0,47.84,54.97,32.76,34.51
"2016-09-02 23:50:00",251484,0.025,187.3,15.72,100,0,0,868.1669,0,-3.32,3.124,198,20.41,20.19,0.8526484,0,47.84,54.97,32.76,34.51
